Waarnemingen

Advertentie
Mijn weer
Lahr, Duitsland (10805): temperatuur & dauwpunt: 15.01.2017 18:00:00 - 21.01.2017 18:00:00 (CET)Lahr, Duitsland (10805): temperatuur 5cm & temperatuur -5cm: 15.01.2017 18:00:00 - 21.01.2017 18:00:00 (CET)Lahr, Duitsland (10805): temperatuur -20cm & temperatuur -100cm: 15.01.2017 18:00:00 - 21.01.2017 18:00:00 (CET)Lahr, Duitsland (10805): windsnelheid & windstoten: 15.01.2017 18:00:00 - 21.01.2017 18:00:00 (CET)Lahr, Duitsland (10805): windrichting: 15.01.2017 18:00:00 - 21.01.2017 18:00:00 (CET)Lahr, Duitsland (10805): luchtdruk: 15.01.2017 18:00:00 - 21.01.2017 18:00:00 (CET)Lahr, Duitsland (10805): zicht: 15.01.2017 18:00:00 - 21.01.2017 18:00:00 (CET)Lahr, Duitsland (10805): Zonneschijnduur: 15.01.2017 18:00:00 - 21.01.2017 18:00:00 (CET)Lahr, Duitsland (10805): neerslag: 15.01.2017 18:00:00 - 21.01.2017 18:00:00 (CET)
Datum & Tijd tt [°C] td [°C] tt 5cm [°C] tt -5cm [°C] tt -20cm [°C] tt -100cm [°C] ff [km/u] ff [kn] fx [km/u] fx [kn] dd ppp [hPa] vv [km] sd [min] rr [mm]
21.01.2017 18:00:00 -4,1 -6,2 -6,9 -0,4 0,2 4,8 5 3 8 5 N 1029,3 3,3 0 0,0
21.01.2017 17:00:00 -2,3 -5,8 -4,5 -0,4 0,2 4,8 8 4 8 4 NNW 1029,0 3,7 37 0,0
21.01.2017 16:00:00 -1,0 -6,2 -0,4 -0,5 0,2 4,8 5 3 9 5 NNO 1029,1 4,8 60 0,0
21.01.2017 15:00:00 -1,0 -7,1 0,9 -0,6 0,2 4,8 4 2 11 6 NNO 1029,3 5 60 0,0
21.01.2017 14:00:00 -1,2 -5,8 0,8 -0,8 0,2 4,9 5 3 11 6 ONO 1029,9 4,7 60 0,0
21.01.2017 13:00:00 -2,7 -7,5 0,5 -1,1 0,2 4,9 3 2 7 4 NNW 1030,7 4,8 60 0,0
21.01.2017 12:00:00 -3,9 -8,3 -1,0 -1,7 0,2 4,9 4 2 6 3 N 1031,5 5 60 0,0
21.01.2017 11:00:00 -4,4 -8,9 -2,9 -2,8 0,2 4,9 0 0 4 2 N 1031,9 4,1 60 0,0
21.01.2017 10:00:00 -7,6 -9,7 -7,9 -3,4 0,2 4,9 4 2 5 3 NNO 1032,1 3,5 57 0,0
21.01.2017 09:00:00 -9,3 -10,8 -11,2 -3,7 0,2 4,9 0 0 4 2 N 1032,1 3,6 0 0,0
21.01.2017 08:00:00 -10,8 -11,8 -12,4 -3,7 0,3 4,9 3 2 5 3 NW 1032,1 3,7 0 0,0
21.01.2017 07:00:00 -10,3 -11,1 -12,0 -3,6 0,3 4,9 1 1 5 3 N 1032,0 2,9 0 0,0
21.01.2017 06:00:00 -10,0 -11,0 -11,9 -3,5 0,3 4,9 3 2 5 3 WZW 1031,9 3,9 0 0,0
21.01.2017 05:00:00 -10,0 -11,1 -12,0 -3,4 0,3 4,9 1 1 5 3 ZO 1031,9 4,0 0 0,0
21.01.2017 04:00:00 -10,2 -11,4 -11,8 -3,3 0,3 4,9 5 3 8 4 ZZW 1032,2 3,9 0 0,0
21.01.2017 03:00:00 -9,5 -10,8 -11,8 -3,1 0,4 4,9 1 0 6 4 ZZW 1032,3 3,6 0 0,0
21.01.2017 02:00:00 -8,6 -9,7 -10,8 -3,0 0,4 4,9 5 3 6 4 Z 1032,2 3,7 0 0,0
21.01.2017 01:00:00 -9,0 -10,2 -10,8 -2,7 0,4 4,9 3 2 9 5 ZW 1032,8 2,8 0 0,0
21.01.2017 00:00:00 -7,1 -8,6 -8,5 -2,5 0,4 4,9 8 4 12 6 Z 1032,9 3,2 0 0,0
20.01.2017 23:00:00 -8,1 -9,3 -10,0 -2,2 0,4 4,9 5 3 8 4 W 1033,0 3,5 0 0,0
20.01.2017 22:00:00 -6,2 -7,7 -9,3 -1,8 0,4 4,9 4 2 10 5 ZZO 1032,8 3,6 0 0,0
20.01.2017 21:00:00 -6,2 -7,6 -8,0 -1,3 0,4 4,9 6 3 13 7 ZZW 1032,8 4,2 0 0,0
20.01.2017 20:00:00 -6,1 -7,7 -8,3 -0,8 0,4 4,9 4 2 9 5 ZZW 1032,8 5 0 0,0
20.01.2017 19:00:00 -4,5 -7,0 -6,0 -0,5 0,4 5,0 8 4 9 5 Z 1032,7 4,3 0 0,0
20.01.2017 18:00:00 -3,2 -6,5 -7,0 -0,4 0,4 5,0 5 3 6 4 Z 1032,4 4,8 0 0,0
20.01.2017 17:00:00 -2,1 -6,6 -4,0 -0,4 0,4 5,0 4 2 6 3 ZZW 1032,2 7 33 0,0
20.01.2017 16:00:00 -1,6 -6,8 -1,3 -0,5 0,4 5,0 2 1 8 5 - 1032,2 6 60 0,0
20.01.2017 15:00:00 -1,3 -7,3 -0,8 -0,6 0,4 5,0 5 3 9 5 NNW 1032,3 6 60 0,0
20.01.2017 14:00:00 -1,9 -8,0 1,1 -0,7 0,4 5,0 4 2 9 5 NNW 1032,5 8 60 0,0
20.01.2017 13:00:00 -2,4 -8,1 -0,8 -1,0 0,4 5,0 3 2 9 5 WZW 1033,3 7 60 0,0
20.01.2017 12:00:00 -3,6 -8,3 -2,3 -1,5 0,4 5,0 3 2 7 4 Z 1033,9 7 60 0,0
20.01.2017 11:00:00 -5,2 -8,7 -3,3 -2,4 0,5 5,0 3 1 5 3 NNW 1034,3 6 60 0,0
20.01.2017 10:00:00 -7,0 -9,5 -8,0 -3,0 0,5 5,0 1 1 4 2 WZW 1034,5 4,8 60 0,0
20.01.2017 09:00:00 -10,2 -11,7 -10,9 -3,3 0,5 5,0 2 1 8 4 ZW 1034,4 4,6 2 0,0
20.01.2017 08:00:00 -10,3 -11,3 -11,4 -3,2 0,5 5,0 5 3 7 4 ZZW 1034,6 4,4 0 0,0
20.01.2017 07:00:00 -10,5 -11,8 -12,0 -3,1 0,5 5,0 6 3 8 4 ZZW 1034,3 4,6 0 0,0
20.01.2017 06:00:00 -9,4 -10,4 -11,7 -3,0 0,6 5,0 4 2 9 5 ZZO 1034,1 3,9 0 0,0
20.01.2017 05:00:00 -9,5 -10,6 -10,9 -2,9 0,6 5,0 8 5 11 6 ZW 1033,9 4,5 0 0,0
20.01.2017 04:00:00 -8,3 -9,9 -9,5 -2,8 0,6 5,0 8 5 11 6 ZZW 1034,0 4,5 0 0,0
20.01.2017 03:00:00 -9,4 -10,4 -10,8 -2,7 0,6 5,0 1 1 6 3 NNW 1034,3 4,2 0 0,0
20.01.2017 02:00:00 -9,1 -10,1 -11,4 -2,6 0,6 5,0 1 1 6 3 W 1034,1 4,2 0 0,0
20.01.2017 01:00:00 -8,3 -9,2 -11,3 -2,5 0,7 5,0 4 2 5 3 NNO 1034,3 3,8 0 0,0
20.01.2017 00:00:00 -8,2 -9,3 -10,4 -2,3 0,7 5,0 3 2 6 4 Z 1034,4 3,7 0 0,0
19.01.2017 23:00:00 -8,0 -8,7 -9,9 -2,1 0,7 5,0 1 1 6 3 O 1034,7 3,7 0 0,0
19.01.2017 22:00:00 -7,7 -9,2 -10,0 -1,8 0,7 5,1 3 1 4 2 ZZW 1034,8 4,7 0 0,0
19.01.2017 21:00:00 -6,3 -7,8 -9,6 -1,4 0,7 5,1 2 1 4 2 WZW 1034,6 5 0 0,0
19.01.2017 20:00:00 -5,5 -7,7 -8,0 -1,0 0,7 5,1 1 1 5 3 ZO 1034,3 6 0 0,0
19.01.2017 19:00:00 -5,6 -8,0 -8,8 -0,6 0,7 5,1 5 3 13 7 N 1034,2 7 0 0,0
19.01.2017 18:00:00 -4,5 -7,5 -7,9 -0,4 0,7 5,1 9 5 16 9 N 1034,2 7 0 0,0
19.01.2017 17:00:00 -3,4 -7,2 -4,5 -0,3 0,7 5,1 13 7 17 9 NNO 1033,9 7 35 0,0
19.01.2017 16:00:00 -1,5 -6,7 -1,3 -0,4 0,7 5,1 13 7 20 11 NNO 1033,7 8 60 0,0
19.01.2017 15:00:00 -1,4 -6,7 -0,2 -0,4 0,7 5,1 14 8 19 11 NNO 1033,8 10 60 0,0
19.01.2017 14:00:00 -1,8 -6,7 0,0 -0,5 0,7 5,1 13 7 19 10 NNO 1034,2 8 60 0,0
19.01.2017 13:00:00 -2,9 -7,3 -0,5 -0,7 0,7 5,1 14 7 19 10 NNO 1034,6 6 60 0,0
19.01.2017 12:00:00 -4,1 -7,6 -1,3 -1,1 0,8 5,1 11 6 18 10 NNO 1035,2 7 60 0,0
19.01.2017 11:00:00 -5,3 -8,3 -3,8 -1,7 0,8 5,1 8 5 12 6 NNO 1035,6 6 60 0,0
19.01.2017 10:00:00 -6,3 -9,1 -6,8 -2,1 0,8 5,1 5 3 10 5 N 1035,6 6 34 0,0
19.01.2017 09:00:00 -8,5 -9,6 -10,1 -2,3 0,8 5,1 2 1 13 7 NNW 1035,3 4,7 0 0,0
19.01.2017 08:00:00 -8,3 -9,6 -10,5 -2,2 0,8 5,1 9 5 12 6 NNW 1035,1 5 0 0,0
19.01.2017 07:00:00 -9,1 -10,5 -10,4 -2,1 0,9 5,1 10 6 14 8 N 1034,8 5 0 0,0
19.01.2017 06:00:00 -8,2 -9,7 -9,9 -2,0 0,9 5,1 10 5 12 6 N 1034,7 6 0 0,0
19.01.2017 05:00:00 -8,4 -10,0 -9,5 -1,8 0,9 5,1 11 6 16 9 N 1034,8 6 0 0,0
19.01.2017 04:00:00 -8,1 -9,7 -9,3 -1,7 0,9 5,1 9 5 19 10 N 1034,5 6 0 0,0
19.01.2017 03:00:00 -6,7 -9,0 -8,4 -1,6 1,0 5,1 10 6 13 7 N 1034,4 7 0 0,0
19.01.2017 02:00:00 -7,4 -9,2 -9,8 -1,5 1,0 5,1 6 4 16 9 NO 1034,3 6 0 0,0
19.01.2017 01:00:00 -6,6 -8,5 -7,9 -1,5 1,0 5,1 13 7 16 9 N 1034,1 7 0 0,0
19.01.2017 00:00:00 -7,0 -8,8 -8,4 -1,3 1,0 5,1 11 6 18 10 NNO 1034,3 7 0 0,0
18.01.2017 23:00:00 -6,0 -8,3 -7,5 -1,1 1,0 5,1 14 7 18 10 N 1034,4 8 0 0,0
18.01.2017 22:00:00 -5,3 -9,0 -6,7 -0,9 1,0 5,1 11 6 23 13 NNO 1034,4 12 0 0,0
18.01.2017 21:00:00 -3,8 -7,8 -4,7 -0,7 1,0 5,2 11 6 22 12 NO 1034,6 14 0 0,0
18.01.2017 20:00:00 -4,0 -7,7 -5,3 -0,5 1,0 5,2 10 5 18 10 NNO 1034,7 15 0 0,0
18.01.2017 19:00:00 -3,1 -7,5 -4,2 -0,3 1,0 5,2 11 6 24 13 NO 1034,6 16 0 0,0
18.01.2017 18:00:00 -2,2 -7,3 -3,3 -0,2 1,0 5,2 16 9 31 17 NO 1034,5 18 0 0,0
18.01.2017 17:00:00 -1,4 -7,1 -2,3 -0,2 1,0 5,2 18 10 30 16 NO 1034,1 10 39 0,0
18.01.2017 16:00:00 0,1 -7,3 0,1 -0,2 1,0 5,2 15 8 31 17 NO 1033,6 10 60 0,0
18.01.2017 15:00:00 0,7 -7,5 1,4 -0,2 1,0 5,2 16 9 25 14 NO 1033,6 24 60 0,0
18.01.2017 14:00:00 0,5 -7,5 1,7 -0,3 1,0 5,2 16 9 25 13 ONO 1033,6 19 60 0,0
18.01.2017 13:00:00 0,1 -8,3 2,1 -0,4 1,1 5,2 6 4 16 9 O 1034,0 20 49 0,0
18.01.2017 12:00:00 -0,5 -8,3 0,4 -0,5 1,1 5,2 11 6 26 14 NO 1034,4 23 49 0,0
18.01.2017 11:00:00 -1,2 -8,3 -0,5 -0,8 1,1 5,2 19 10 34 19 NO 1034,6 24 60 0,0
18.01.2017 10:00:00 -2,5 -8,2 -3,3 -1,1 1,1 5,2 14 8 21 11 NNO 1034,6 17 10 0,0
18.01.2017 09:00:00 -4,3 -8,6 -5,5 -1,2 1,1 5,2 15 8 22 12 N 1034,6 18 0 0,0
18.01.2017 08:00:00 -3,7 -8,4 -5,0 -1,1 1,2 5,2 17 9 23 13 NO 1033,9 25 0 0,0
18.01.2017 07:00:00 -4,7 -8,6 -6,2 -1,0 1,2 5,2 13 7 28 15 NNO 1033,8 26 0 0,0
18.01.2017 06:00:00 -3,3 -8,5 -4,2 -1,0 1,2 5,2 22 12 35 19 NO 1033,6 35 0 0,0
18.01.2017 05:00:00 -5,7 -8,8 -7,2 -0,9 1,2 5,2 11 6 28 15 NNO 1033,8 22 0 0,0
18.01.2017 04:00:00 -3,4 -8,4 -4,5 -0,8 1,2 5,2 18 10 27 15 NO 1033,8 34 0 0,0
18.01.2017 03:00:00 -3,4 -8,1 -4,4 -0,7 1,3 5,2 19 10 26 14 NO 1034,1 32 0 0,0
18.01.2017 02:00:00 -4,2 -8,0 -5,7 -0,6 1,3 5,2 11 6 27 15 NO 1034,3 29 0 0,0
18.01.2017 01:00:00 -3,6 -7,8 -4,7 -0,5 1,3 5,2 16 8 34 18 NO 1034,3 30 0 0,0
18.01.2017 00:00:00 -3,9 -7,7 -5,0 -0,4 1,3 5,2 12 7 22 12 NO 1034,2 34 0 0,0
17.01.2017 23:00:00 -3,5 -7,4 -4,7 -0,2 1,3 5,2 14 8 28 15 NO 1034,0 28 0 0,0
17.01.2017 22:00:00 -2,6 -7,2 -3,7 -0,1 1,3 5,2 16 8 28 15 NO 1033,9 31 0 0,0
17.01.2017 21:00:00 -3,1 -7,0 -4,3 -0,1 1,3 5,2 15 8 31 17 NNO 1033,7 25 0 0,0
17.01.2017 20:00:00 -2,4 -6,7 -3,3 0,0 1,4 5,2 19 10 33 18 NO 1033,7 24 0 0,0
17.01.2017 19:00:00 -3,2 -6,9 -4,4 0,0 1,4 5,2 16 8 30 16 NNO 1033,5 23 0 0,0
17.01.2017 18:00:00 -1,8 -6,7 -2,2 0,1 1,4 5,2 20 11 35 19 NNO 1033,1 29 0 0,0
17.01.2017 17:00:00 -1,2 -7,5 -1,6 0,1 1,4 5,2 27 14 38 20 NNO 1032,8 39 0 0,0
17.01.2017 16:00:00 -1,0 -7,0 -1,1 0,1 1,4 5,2 22 12 45 25 NNO 1032,6 39 3 0,0
17.01.2017 15:00:00 -1,0 -6,4 -0,9 0,1 1,4 5,2 24 13 39 21 NO 1032,4 44 14 0,0
17.01.2017 14:00:00 -0,4 -6,3 0,4 0,1 1,4 5,2 19 11 34 18 NO 1032,1 34 47 0,0
17.01.2017 13:00:00 -0,7 -6,5 0,7 0,0 1,4 5,3 22 12 32 17 NNO 1032,7 23 54 0,0
17.01.2017 12:00:00 -1,4 -5,2 0,5 0,0 1,4 5,3 16 9 30 16 NNO 1033,1 18 40 0,0
17.01.2017 11:00:00 -2,8 -5,5 -2,4 0,0 1,5 5,3 21 11 28 15 NNO 1033,6 18 1 0,0
17.01.2017 10:00:00 -4,2 -6,7 -3,6 0,0 1,5 5,3 4 2 17 9 O 1033,5 15 5 0,0
17.01.2017 09:00:00 -5,4 -7,7 -6,3 0,1 1,5 5,3 12 7 20 11 NO 1033,2 19 2 0,0
17.01.2017 08:00:00 -5,7 -7,7 -6,6 0,1 1,5 5,3 13 7 19 10 NO 1032,5 15 0 0,0
17.01.2017 07:00:00 -6,0 -7,9 -7,2 0,2 1,5 5,3 8 4 23 12 N 1032,2 17 0 0,0
17.01.2017 06:00:00 -5,2 -6,8 -5,8 0,2 1,5 5,3 18 10 29 15 NNO 1031,6 14 0 0,0
17.01.2017 05:00:00 -4,7 -6,4 -5,6 0,3 1,5 5,3 19 10 27 15 N 1031,0 16 0 0,0
17.01.2017 04:00:00 -3,6 -5,7 -3,8 0,3 1,6 5,3 23 13 29 16 NNO 1030,8 17 0 0,0
17.01.2017 03:00:00 -3,5 -5,5 -3,6 0,3 1,6 5,3 11 6 19 10 NNO 1030,7 18 0 0,0
17.01.2017 02:00:00 -4,9 -6,9 -6,7 0,3 1,6 5,3 8 4 14 8 NNO 1030,3 27 0 0,0
17.01.2017 01:00:00 -3,0 -5,7 -3,5 0,3 1,6 5,3 13 7 21 11 NO 1030,0 35 0 0,0
17.01.2017 00:00:00 -3,3 -6,0 -3,6 0,3 1,6 5,3 9 5 16 9 NNO 1029,5 31 0 0,0
16.01.2017 23:00:00 -4,1 -7,1 -5,3 0,3 1,6 5,3 13 7 14 8 NNO 1029,3 30 0 0,0
16.01.2017 22:00:00 -2,6 -6,9 -4,2 0,4 1,6 5,3 11 6 14 7 N 1028,9 35 0 0,0
16.01.2017 21:00:00 -1,9 -5,8 -2,3 0,4 1,6 5,3 5 3 14 7 ONO 1028,6 29 0 0,0
16.01.2017 20:00:00 -1,8 -3,5 -2,2 0,4 1,6 5,3 8 4 20 11 NO 1028,1 12 0 0,0
16.01.2017 19:00:00 -1,6 -3,4 -1,9 0,4 1,6 5,3 16 9 22 12 N 1027,4 10 0 0,0
16.01.2017 18:00:00 -2,4 -4,6 -3,4 0,4 1,6 5,3 15 8 24 13 NNO 1026,9 15 0 0,0
16.01.2017 17:00:00 -1,5 -4,7 -2,6 0,4 1,6 5,3 18 10 23 12 N 1026,3 10 3 0,0
16.01.2017 16:00:00 -0,5 -4,2 -1,1 0,4 1,7 5,3 14 8 23 12 NNO 1025,9 31 7 0,0
16.01.2017 15:00:00 -0,3 -3,5 -0,3 0,4 1,7 5,3 17 9 28 15 N 1025,7 22 11 0,0
16.01.2017 14:00:00 0,0 -2,9 0,5 0,4 1,7 5,3 16 9 23 12 N 1025,4 19 18 0,0
16.01.2017 13:00:00 0,2 -3,2 1,9 0,4 1,7 5,3 13 7 20 11 NNO 1025,5 11 42 0,0
16.01.2017 12:00:00 -1,0 -2,8 -0,8 0,4 1,7 5,3 14 8 19 10 N 1025,8 8 7 0,0
16.01.2017 11:00:00 -0,9 -2,3 -0,7 0,4 1,7 5,3 13 7 18 10 N 1025,6 7 13 0,0
16.01.2017 10:00:00 -1,8 -2,6 -2,6 0,4 1,7 5,3 4 2 10 5 NNW 1025,5 3,1 33 0,0
16.01.2017 09:00:00 -3,7 -4,1 -4,0 0,4 1,7 5,3 7 4 12 6 NNO 1025,3 2,6 0 0,0
16.01.2017 08:00:00 -2,8 -3,1 -4,4 0,4 1,7 5,3 7 4 10 5 N 1024,6 4,0 0 0,0
16.01.2017 07:00:00 -2,5 -2,5 -4,8 0,4 1,8 5,3 2 1 4 2 WZW 1024,1 3,2 0 0,0
16.01.2017 06:00:00 -2,7 -2,7 -3,3 0,4 1,8 5,3 0 0 6 4 ZZW 1024,0 2,2 0 0,0
16.01.2017 05:00:00 -2,2 -2,2 -4,0 0,4 1,8 5,3 3 2 5 3 ZW 1023,7 2,7 0 0,1
16.01.2017 04:00:00 -1,9 -1,9 -1,7 0,4 1,8 5,3 4 2 7 4 N 1023,8 1,3 0 0,3
16.01.2017 03:00:00 -2,3 -2,4 -3,3 0,4 1,8 5,3 4 2 5 3 WZW 1023,7 4,8 0 0,0
16.01.2017 02:00:00 -1,3 -2,1 -2,9 0,5 1,9 5,3 4 2 8 4 Z 1023,5 13 0 0,0
16.01.2017 01:00:00 -1,1 -1,2 -1,3 0,5 1,9 5,3 5 3 9 5 Z 1023,7 2,6 0 0,1
16.01.2017 00:00:00 -1,7 -2,0 -3,3 0,5 1,9 5,3 5 3 5 3 WZW 1023,9 7 0 0,0
15.01.2017 23:00:00 -1,1 -1,9 -2,0 0,5 2,0 5,3 3 1 9 5 ZZW 1023,9 11 0 0,0
15.01.2017 22:00:00 -0,8 -1,6 -1,4 0,5 2,0 5,3 5 3 8 5 Z 1024,0 12 0 0,0
15.01.2017 21:00:00 -1,5 -2,1 -2,9 0,5 2,1 5,3 6 3 10 6 Z 1024,0 11 0 0,0
15.01.2017 20:00:00 -1,0 -1,4 -1,8 0,6 2,2 5,3 7 4 10 5 ZZW 1023,9 8 0 0,0
15.01.2017 19:00:00 0,3 -1,0 -0,1 0,6 2,2 5,3 7 4 10 5 Z 1023,9 16 0 0,0
15.01.2017 18:00:00 -0,2 -1,2 -1,2 0,7 2,3 5,3 6 4 11 6 ZZW 1023,7 16 0 0,0

tt = temperatuur
td = dauwpunt
tt 5cm = temperatuur 5cm
tt -5cm = temperatuur -5cm
tt -20cm = temperatuur -20cm
tt -100cm = temperatuur -100cm
ff = windsnelheid
fx = windstoten
dd = windrichting
ppp = luchtdruk
vv = zicht
sd = Zonneschijnduur
rr = neerslag

Weerstations in de omgeving